CAPE
0 0 0 0 0 0 0 0 0 0 0 0 0 0 0 0 0 0 0 0 0 0 0 0 0 0 0 0 5 3 0 0 0 0 0 0 0 6 1 7 0 0 1 1
0 0 0 0 0 0 0 0 0 0 0 0 0 0 0 0 0 0 0 0 0 0 0 0 0 0 0 0 0 8 10 0 0 0 0 0 0 0 1 3 2 5 2 0
0 0 0 0 0 0 0 0 0 0 0 0 0 0 0 0 0 0 0 0 0 0 0 0 0 0 0 0 0 0 0 4 1 1 0 0 0 0 0 1 0 1 1 1
0 0 0 0 0 0 0 0 0 0 0 0 0 0 0 0 0 0 0 0 0 0 0 0 0 0 0 0 0 0 0 0 0 0 1 2 1 3 0 0 0 0 0 0
0 0 0 0 0 0 0 0 0 0 0 0 0 0 0 0 0 0 0 0 0 0 0 0 0 0 0 0 0 0 0 0 0 0 0 3 5 0 0 0 0 0 0 0
0 0 0 0 0 0 0 0 0 0 0 0 0 0 0 0 0 0 0 0 0 0 0 0 0 0 0 0 0 0 0 0 0 0 10 11 6 3 0 0 0 0 0 4
0 0 0 0 0 0 0 0 0 0 0 0 0 0 0 0 0 0 0 0 0 0 0 0 0 0 0 0 0 0 0 0 0 0 8 15 14 12 0 0 0 0 2 1
0 0 0 0 0 0 0 0 0 0 0 0 0 0 0 0 0 0 0 0 0 0 0 0 0 0 0 0 0 0 0 0 0 0 4 5 3 4 1 1 0 0 0 13
0 0 0 0 0 0 0 0 0 0 0 0 0 0 0 0 0 0 0 0 0 0 0 0 0 0 0 0 0 0 0 0 0 0 0 0 1 2 3 0 0 0 5 3
0 0 0 0 0 0 0 0 0 0 0 0 0 0 0 0 0 0 0 0 0 0 0 0 0 0 0 0 0 0 0 0 0 0 0 0 0 0 0 0 0 0 0 0
0 0 0 0 0 0 0 0 0 0 0 0 0 0 0 0 0 0 0 0 0 0 0 0 0 0 0 0 0 0 0 0 0 0 0 0 0 0 0 0 0 0 0 0
0 0 0 0 0 0 0 0 0 0 0 0 0 0 0 0 0 0 0 0 0 0 0 0 0 0 0 0 0 0 0 0 0 0 0 0 0 0 0 0 0 0 0 0
0 0 0 0 0 0 0 0 0 0 0 0 0 0 0 0 0 0 0 0 0 0 0 0 0 0 0 0 0 0 0 0 0 0 0 0 0 0 0 0 0 0 0 0
0 0 0 0 0 0 0 0 0 0 0 0 0 0 0 0 0 0 0 0 0 0 0 0 0 0 0 0 0 0 0 0 0 0 0 0 0 1 1 0 0 0 0 0
0 0 0 0 0 0 0 0 0 0 0 0 0 0 0 0 0 0 0 0 0 0 0 0 0 0 0 0 0 0 0 0 0 0 0 0 1 0 0 0 0 0 0 0
0 0 0 0 0 0 0 0 0 0 0 0 0 0 0 0 0 0 0 0 0 0 0 0 0 0 0 0 0 0 0 0 0 0 0 0 0 0 0 0 0 0 0 0
0 0 0 0 0 0 0 0 0 0 0 0 0 0 0 0 0 0 0 0 0 0 0 0 0 0 0 0 0 0 0 0 0 0 0 0 0 0 0 0 0 0 0 0
0 0 0 0 0 0 0 0 0 0 0 0 0 0 0 0 0 0 0 0 0 0 0 0 0 0 0 0 0 0 0 0 0 0 0 0 0 0 0 0 0 0 0 0
0 0 0 0 0 0 0 0 0 0 0 0 0 0 0 0 0 0 0 0 0 0 0 0 0 0 0 0 0 0 0 0 0 0 0 0 0 0 0 0 0 0 0 0
0 0 0 0 0 0 0 0 0 0 0 0 0 0 0 0 0 0 0 0 0 0 0 0 0 0 0 0 0 0 0 0 0 0 0 0 0 0 0 0 0 0 0 0
0 0 0 0 0 0 0 0 0 0 0 0 0 0 0 0 0 0 0 0 0 0 0 0 0 0 0 0 0 0 0 0 0 0 0 0 0 0 0 0 0 0 0 0
0 0 0 0 0 0 0 0 0 0 0 0 0 0 0 0 0 0 0 0 0 0 0 0 0 0 0 0 0 0 0 0 0 0 0 0 0 0 0 0 0 0 0 0
0 0 0 0 0 0 0 0 0 0 0 0 0 0 0 0 0 0 0 0 0 0 0 0 0 0 0 0 0 0 0 0 0 0 0 0 0 0 0 0 0 0 0 0
0 0 0 0 0 0 0 0 0 0 0 0 0 0 0 0 0 0 0 0 0 0 0 0 0 0 0 0 0 0 0 0 0 0 0 0 0 0 0 0 0 0 0 0
0 0 0 0 0 0 0 0 0 0 0 0 0 0 0 0 0 0 0 0 0 0 0 0 0 0 0 0 0 0 0 0 0 0 0 0 0 0 0 0 0 0 0 0
0 0 0 0 0 0 0 0 0 0 0 0 0 0 0 0 0 0 0 0 0 0 0 0 0 0 0 0 0 0 0 0 0 0 0 0 0 0 0 0 0 0 0 0
CIN
0 0 0 0 0 0 0 0 0 0 0 0 0 0 0 0 0 0 0 0 0 0 0 0 0 0 0 0 -600 -579 0 0 0 0 0 0 0 -28 -34 -33 -31 -7 -55 -69
0 0 0 0 0 0 0 0 0 0 0 0 0 0 0 0 0 0 0 0 0 0 0 0 0 0 0 0 0 -637 -561 0 0 0 0 0 0 0 -9 -26 -33 -34 -23 -15
0 0 0 0 0 0 0 0 0 0 0 0 0 0 0 0 0 0 0 0 0 0 0 0 0 0 0 0 0 0 0 -607 -236 -282 0 0 0 0 -97 -18 -12 -20 -34 -21
0 0 0 0 0 0 0 0 0 0 0 0 0 0 0 0 0 0 0 0 0 0 0 0 0 0 0 0 0 0 0 0 0 0 -262 -534 -392 -480 -62 0 0 0 0 0
0 0 0 0 0 0 0 0 0 0 0 0 0 0 0 0 0 0 0 0 0 0 0 0 0 0 0 0 0 0 0 0 0 0 -42 -575 -499 0 0 0 0 0 0 -3
0 0 0 0 0 0 0 0 0 0 0 0 0 0 0 0 0 0 0 0 0 0 0 0 0 0 0 0 0 0 0 0 0 0 -626 -562 -502 -418 -159 0 0 0 0 -81
0 0 0 0 0 0 0 0 0 0 0 0 0 0 0 0 0 0 0 0 0 0 0 0 0 0 0 0 0 0 0 0 0 -19 -681 -610 -513 -430 0 0 0 0 -70 -73
0 0 0 0 0 0 0 0 0 0 0 0 0 0 0 0 0 0 0 0 0 0 0 0 0 0 0 0 0 0 0 0 0 0 -739 -620 -558 -486 0 0 0 0 0 -49
0 0 0 0 0 0 0 0 0 0 0 0 0 0 0 0 0 0 0 0 0 0 0 0 0 0 0 0 0 0 0 0 0 0 0 0 0 0 0 0 0 0 -29 -54
0 0 0 0 0 0 0 0 0 0 0 0 0 0 0 0 0 0 0 0 0 0 0 0 0 0 0 0 0 0 0 0 0 0 0 0 0 0 0 0 0 0 0 -19
0 0 0 0 0 0 0 0 0 0 0 0 0 0 0 0 0 0 0 0 0 0 0 0 0 0 0 0 0 0 0 0 0 0 0 0 0 0 0 0 0 0 0 0
0 0 0 0 0 0 0 0 0 0 0 0 0 0 0 0 0 0 0 0 0 0 0 0 0 0 0 0 0 0 0 0 0 0 0 0 0 0 0 0 0 0 0 0
0 0 0 0 0 0 0 0 0 0 0 0 0 0 0 0 0 0 0 0 0 0 0 0 0 0 0 0 0 0 0 0 0 0 0 0 0 0 0 0 0 0 0 0
0 0 0 0 0 0 0 0 0 0 0 0 0 0 0 0 0 0 0 0 0 0 0 0 0 0 0 0 0 0 0 0 0 0 0 0 0 0 0 0 0 0 0 0
0 0 0 0 0 0 0 0 0 0 0 0 0 0 0 0 0 0 0 0 0 0 0 0 0 0 0 0 0 0 0 0 0 0 0 0 0 0 0 0 0 0 0 0
0 0 0 0 0 0 0 0 0 0 0 0 0 0 0 0 0 0 0 0 0 0 0 0 0 0 0 0 0 0 0 0 0 0 0 0 0 0 0 0 0 0 0 0
0 0 0 0 0 0 0 0 0 0 0 0 0 0 0 0 0 0 0 0 0 0 0 0 0 0 0 0 0 0 0 0 0 0 0 0 0 0 0 0 0 0 0 0
0 0 0 0 0 0 0 0 0 0 0 0 0 0 0 0 0 0 0 0 0 0 0 0 0 0 0 0 0 0 0 0 0 0 0 0 0 0 0 0 0 0 0 0
0 0 0 0 0 0 0 0 0 0 0 0 0 0 0 0 0 0 0 0 0 0 0 0 0 0 0 0 0 0 0 0 0 0 0 0 0 0 0 0 0 0 0 0
0 0 0 0 0 0 0 0 0 0 0 0 0 0 0 0 0 0 0 0 0 0 0 0 0 0 0 0 0 0 0 0 0 0 0 0 0 0 0 0 0 0 0 0
0 0 0 0 0 0 0 0 0 0 0 0 0 0 0 0 0 0 0 0 0 0 0 0 0 0 0 0 0 0 0 0 0 0 0 0 0 0 0 0 0 0 0 0
0 0 0 0 0 0 0 0 0 0 0 0 0 0 0 0 0 0 0 0 0 0 0 0 0 0 0 0 0 0 0 0 0 0 0 0 0 0 0 0 0 0 0 0
0 0 0 0 0 0 0 0 0 0 0 0 0 0 0 0 0 0 0 0 0 0 0 0 0 0 0 0 0 0 0 0 0 0 0 0 0 0 0 0 0 0 0 0
0 0 0 0 0 0 0 0 0 0 0 0 0 0 0 0 0 0 0 0 0 0 0 0 0 0 0 0 0 0 0 0 0 0 0 0 0 0 0 0 0 0 0 0
0 0 0 0 0 0 0 0 0 0 0 0 0 0 0 0 0 0 0 0 0 0 0 0 0 0 0 0 0 0 0 0 0 0 0 0 0 0 0 0 0 0 0 0
0 0 0 0 0 0 0 0 0 0 0 0 0 0 0 0 0 0 0 0 0 0 0 0 0 0 0 0 0 0 0 0 0 0 0 0 0 0 0 0 0 0 0 0
Wind_Speed
28 32 34 30 27 27 27 29 28 28 26 25 29 31 35 29 28 29 30 28 28 29 31 29 29 22 19 17 12 12 10 10 8 8 7 8 7 7 7 8 8 8 6 6
30 39 31 28 29 28 27 29 29 26 23 27 33 36 36 34 35 31 29 31 32 35 34 33 30 26 22 17 16 15 13 13 11 11 11 12 11 12 10 10 11 10 9 9
36 33 27 28 28 28 29 27 27 28 25 25 31 42 37 30 31 36 35 36 35 37 39 35 27 25 22 21 18 16 15 14 14 13 14 15 15 16 14 14 12 11 10 10
33 27 27 30 32 28 30 25 26 29 29 34 26 44 34 31 29 37 37 36 40 41 38 38 33 30 24 22 22 19 17 15 14 13 13 13 13 13 13 13 13 12 11 12
34 29 29 34 31 26 29 23 24 25 27 31 30 35 36 30 28 28 36 38 43 45 41 39 36 33 27 24 20 18 17 16 15 14 14 13 14 14 15 15 15 13 12 11
30 25 30 29 28 26 21 22 23 24 27 40 31 31 35 27 27 27 27 36 39 43 43 41 36 32 32 29 25 21 18 17 15 13 13 13 14 14 14 14 14 14 13 13
34 32 27 23 27 24 25 24 30 33 33 36 25 28 33 27 18 17 20 23 28 30 34 33 29 27 27 26 24 21 18 17 15 13 13 13 14 15 16 16 15 15 15 15
38 42 31 26 29 28 27 26 28 35 36 36 29 37 30 21 22 22 20 24 26 28 26 26 25 22 20 19 19 18 15 15 14 13 13 13 14 15 16 16 15 15 16 16
39 38 30 26 24 22 30 34 26 29 28 34 32 35 36 34 28 22 17 20 24 27 23 20 18 18 17 16 15 14 15 15 14 13 14 14 15 14 15 15 14 15 16 16
31 36 30 27 22 25 27 21 30 32 39 42 36 36 33 28 25 22 20 15 17 16 18 17 16 14 13 14 15 14 15 15 14 15 14 14 14 14 15 14 14 15 17 17
30 32 32 28 34 31 27 30 30 27 34 35 40 37 27 22 25 21 17 15 15 15 13 13 13 14 14 14 13 14 14 13 13 13 14 14 14 14 13 14 14 14 15 14
31 29 34 36 31 30 31 32 30 35 36 39 40 42 21 22 24 22 18 15 15 14 13 13 12 11 11 11 12 11 11 11 12 13 13 13 14 13 13 12 11 10 10 12
35 34 34 34 36 32 38 34 33 33 31 40 37 44 28 27 23 17 19 19 17 15 15 15 12 12 11 12 12 13 14 14 13 12 12 13 14 14 13 11 10 10 10 12
33 35 41 42 41 30 37 34 31 33 42 39 46 42 29 28 23 20 22 23 22 20 17 15 16 16 15 15 16 16 16 14 13 13 13 14 13 12 11 10 10 11 11 12
35 43 38 38 36 33 35 36 35 38 40 38 52 43 34 27 26 29 26 22 21 20 19 20 20 22 21 21 20 18 17 16 15 15 14 13 12 11 9 10 11 11 11 11
36 37 39 41 35 35 38 33 37 42 42 46 43 42 27 32 35 34 28 27 25 25 26 27 28 27 25 22 20 20 19 17 15 14 14 13 10 9 8 8 9 10 10 11
38 37 36 43 35 35 47 41 36 42 44 44 48 43 35 37 36 35 29 27 29 31 34 34 29 27 27 26 24 22 19 16 14 13 12 10 8 7 7 8 8 9 9 9
35 39 36 41 37 52 49 34 39 41 44 43 48 40 38 39 40 38 37 38 39 38 35 29 34 35 33 28 23 19 15 14 12 12 10 9 8 8 8 8 8 8 8 7
31 34 38 43 42 43 51 33 32 36 50 43 46 48 45 40 40 47 39 38 38 35 37 39 38 35 30 25 20 17 15 13 12 11 10 9 8 7 7 8 8 8 7 8
33 33 35 34 45 49 44 38 28 26 63 38 42 45 44 38 48 53 38 40 44 44 41 39 35 32 30 26 19 17 15 13 13 12 11 10 9 9 9 8 8 9 9 8
32 33 40 39 43 51 37 28 22 36 41 27 33 39 36 34 37 34 29 31 32 34 36 33 31 30 27 22 18 17 15 15 14 12 11 11 11 11 10 8 10 8 6 6
30 31 35 37 47 57 28 25 29 33 24 28 19 16 19 25 27 30 29 27 28 29 29 27 26 25 22 18 16 15 16 15 13 12 12 12 11 11 10 9 9 8 7 8
32 32 32 33 38 30 24 28 24 24 24 25 22 20 20 19 20 21 22 23 24 25 26 26 26 24 22 19 16 16 15 12 11 12 13 13 12 11 10 10 9 9 8 10
31 29 33 33 37 34 21 21 21 23 23 21 21 21 22 22 21 22 23 24 24 23 23 24 24 24 23 22 19 16 12 11 11 13 13 13 13 12 11 10 10 10 11 11
29 26 34 37 33 28 31 26 23 22 22 21 21 23 24 22 22 23 23 23 23 23 23 22 21 22 22 21 19 16 12 11 12 13 13 13 12 12 12 12 11 12 12 13
28 31 33 39 33 34 30 26 25 25 24 24 23 24 23 21 21 22 23 24 24 23 22 21 21 20 19 18 17 15 12 10 11 12 13 13 13 13 13 13 14 15 15 16
Wind_Direction
238 239 240 248 255 262 267 268 271 278 279 272 270 268 261 266 268 267 266 266 265 265 264 266 266 269 270 272 258 257 252 256 254 269 267 283 282 278 280 288 289 295 290 289
239 242 247 251 254 259 263 267 270 279 281 267 269 270 267 266 265 266 269 267 265 264 265 267 268 269 271 267 266 265 257 260 251 261 273 284 289 297 292 288 288 285 288 296
240 250 247 247 251 253 261 267 269 271 279 279 277 270 271 273 269 266 267 266 267 265 264 268 271 270 272 271 266 261 260 258 256 258 278 289 294 299 300 300 293 284 283 286
246 251 240 247 250 252 258 267 271 273 274 272 278 272 275 272 268 266 266 267 265 265 267 267 271 272 271 271 273 270 265 261 260 259 265 264 270 277 286 292 301 296 288 291
241 242 245 245 249 253 261 268 272 275 276 278 277 279 277 276 272 270 268 266 264 263 268 270 271 272 274 274 272 271 267 264 264 260 258 262 268 282 293 299 300 300 299 296
244 253 244 251 251 250 257 265 273 279 279 271 274 274 283 275 278 276 273 269 266 265 268 270 274 277 275 276 276 275 269 268 265 260 258 260 265 275 283 289 292 298 302 303
242 245 250 251 246 251 248 252 263 267 266 267 288 277 274 289 291 275 279 277 273 274 271 273 277 276 278 272 274 276 272 270 265 262 263 263 267 275 282 286 288 294 298 302
236 243 240 246 248 246 243 246 257 263 267 274 279 277 288 293 277 286 287 280 277 278 280 278 278 280 283 278 277 278 275 272 266 265 266 274 281 284 287 291 293 294 297 302
236 245 246 246 249 238 249 249 253 270 280 277 278 282 287 287 289 285 270 279 276 272 280 279 282 284 285 286 289 287 285 284 281 277 280 284 289 289 293 296 296 298 302 306
246 246 251 248 248 252 251 241 252 260 266 269 277 282 284 296 289 282 279 277 272 271 277 278 285 292 296 297 294 295 295 294 294 293 294 294 294 295 299 302 302 303 306 310
242 250 250 244 245 243 248 246 255 261 262 270 274 279 291 291 291 297 280 285 279 275 273 282 286 292 295 296 298 300 301 302 303 305 307 307 307 306 305 305 306 309 313 316
240 250 249 245 260 256 250 249 245 255 260 264 272 271 296 313 295 291 300 290 288 284 281 284 288 293 297 302 305 306 308 309 310 311 315 317 318 319 318 318 319 323 326 328
233 246 248 252 256 254 248 251 247 255 266 261 266 267 280 284 294 295 294 295 292 285 283 285 289 291 297 300 300 302 303 306 309 310 312 313 315 318 321 326 332 333 335 335
232 248 245 246 251 251 252 250 252 250 257 263 262 266 278 274 284 293 298 294 287 283 281 283 287 291 293 295 298 300 302 304 304 305 305 307 313 319 323 330 334 334 339 337
235 241 248 253 258 254 256 249 245 248 251 255 245 266 261 269 276 289 298 293 288 284 283 285 289 290 290 293 295 297 298 298 300 302 305 308 312 316 319 324 328 334 338 340
240 247 246 253 258 256 255 253 246 246 251 257 264 269 274 267 274 280 283 283 282 281 283 287 289 288 289 290 291 292 293 294 297 299 301 306 310 311 316 326 331 332 335 338
237 243 247 251 257 259 257 246 248 253 253 255 260 266 269 270 273 278 277 278 279 281 286 290 289 287 288 289 289 287 289 290 288 290 295 297 298 297 306 316 321 324 326 330
236 238 248 252 255 254 261 261 252 253 258 257 263 269 269 272 275 274 274 275 278 280 284 287 284 284 286 290 290 288 284 280 275 278 281 282 285 291 300 306 308 312 314 317
243 237 246 248 251 261 258 258 258 256 263 261 265 267 269 274 278 273 273 275 278 280 281 281 283 285 289 289 288 283 276 271 266 259 264 267 269 273 285 292 298 302 303 309
240 242 242 248 250 252 267 256 260 275 264 268 266 267 269 272 272 274 275 274 272 274 279 282 285 287 288 288 283 276 269 264 258 258 259 257 256 261 270 277 280 295 301 302
231 238 239 246 254 256 261 265 253 252 267 288 278 269 267 265 270 279 282 278 280 281 283 287 288 289 289 285 277 270 266 255 262 261 263 265 269 273 279 283 291 287 284 289
230 233 241 245 249 251 262 255 241 259 273 270 309 295 279 272 274 277 279 283 286 287 290 293 294 295 297 292 278 267 258 268 265 263 265 265 267 272 275 274 280 275 277 283
238 239 241 241 250 271 267 261 260 265 269 264 273 280 286 292 293 293 291 291 293 294 295 297 297 297 300 299 291 282 281 274 267 266 269 271 273 274 271 265 262 266 272 279
247 245 250 252 255 254 273 270 263 261 260 269 278 287 291 292 295 296 295 296 298 300 302 302 301 300 299 299 298 294 285 278 273 273 273 274 274 274 268 269 266 264 268 275
252 244 249 256 260 258 256 261 265 267 267 274 285 290 292 292 292 297 298 300 301 303 304 305 306 305 304 305 304 302 294 287 283 284 281 278 274 268 267 269 262 262 271 275
253 254 247 257 256 257 262 260 264 268 273 278 283 289 294 296 297 301 301 302 302 302 306 308 309 309 309 310 310 309 304 295 289 285 282 279 276 272 270 268 275 285 283 287